• In Russia
  • List of Countries
  • For 7 days
  • Water Temperature
  • Satellite Maps
  • Weather Map
  • Weather Widgets
  • user-avatar
    Login

    Hourly Weather Kalgoorlie

    Today, 20 June, Thursday

    Time Temperature Precipitation Wind Pressure Humidity
    00:00 +8°C° 0 mm 4 mps 735 mmHg 48%
    01:00 +7°C° 0 mm 4 mps 735 mmHg 49%
    02:00 +7°C° 0 mm 4 mps 735 mmHg 50%
    03:00 +6°C° 0 mm 4 mps 735 mmHg 52%
    04:00 +6°C° 0 mm 4 mps 735 mmHg 53%
    05:00 +6°C° 0 mm 4 mps 734 mmHg 54%
    06:00 +6°C° 0 mm 4 mps 735 mmHg 54%
    07:00 +6°C° 0 mm 4 mps 735 mmHg 54%
    08:00 +7°C° 0 mm 4 mps 735 mmHg 53%
    09:00 +10°C° 0 mm 4 mps 735 mmHg 48%
    10:00 +12°C° 0 mm 5 mps 735 mmHg 43%
    11:00 +14°C° 0 mm 5 mps 734 mmHg 39%
    12:00 +15°C° 0 mm 5 mps 734 mmHg 37%
    13:00 +17°C° 0 mm 5 mps 733 mmHg 36%
    14:00 +19°C° 0 mm 6 mps 733 mmHg 34%
    15:00 +17°C° 0 mm 5 mps 732 mmHg 36%
    16:00 +16°C° 0 mm 5 mps 732 mmHg 39%
    17:00 +15°C° 0 mm 5 mps 732 mmHg 42%
    18:00 +15°C° 0 mm 6 mps 732 mmHg 43%
    19:00 +14°C° 0 mm 7 mps 733 mmHg 44%
    20:00 +12°C° 0 mm 7 mps 733 mmHg 45%
    21:00 +12°C° 0 mm 7 mps 733 mmHg 45%
    22:00 +11°C° 0 mm 8 mps 733 mmHg 45%
    23:00 +11°C° 0 mm 8 mps 733 mmHg 45%

    Tomorrow, 21 June, Friday

    Time Temperature Precipitation Wind Pressure Humidity
    00:00 +11°C° 0 mm 7 mps 732 mmHg 45%
    01:00 +11°C° 0 mm 7 mps 732 mmHg 45%
    02:00 +10°C° 0 mm 7 mps 732 mmHg 45%
    03:00 +10°C° 0 mm 6 mps 731 mmHg 45%
    04:00 +10°C° 0 mm 6 mps 731 mmHg 46%
    05:00 +10°C° 0 mm 6 mps 731 mmHg 46%
    06:00 +10°C° 0 mm 5 mps 731 mmHg 45%
    07:00 +10°C° 0 mm 5 mps 731 mmHg 44%
    08:00 +12°C° 0 mm 4 mps 732 mmHg 43%
    09:00 +13°C° 0 mm 5 mps 732 mmHg 43%
    10:00 +15°C° 0 mm 5 mps 731 mmHg 42%
    11:00 +17°C° 0 mm 5 mps 731 mmHg 41%
    12:00 +19°C° 0 mm 5 mps 731 mmHg 40%
    13:00 +21°C° 0 mm 5 mps 730 mmHg 38%
    14:00 +22°C° 0 mm 4 mps 730 mmHg 36%
    15:00 +21°C° 0.1 mm 4 mps 730 mmHg 42%
    16:00 +20°C° 0.1 mm 3 mps 730 mmHg 48%
    17:00 +20°C° 0.1 mm 3 mps 730 mmHg 53%
    18:00 +19°C° 0.2 mm 3 mps 730 mmHg 61%
    19:00 +18°C° 0.2 mm 2 mps 730 mmHg 68%
    20:00 +17°C° 0.2 mm 2 mps 730 mmHg 76%
    21:00 +16°C° 0.2 mm 3 mps 730 mmHg 79%
    22:00 +15°C° 0.2 mm 4 mps 730 mmHg 83%
    23:00 +15°C° 0.2 mm 5 mps 730 mmHg 86%

    Day after tomorrow, 22 June, Saturday

    Time Temperature Precipitation Wind Pressure Humidity
    00:00 +14°C° 0 mm 5 mps 730 mmHg 86%
    01:00 +14°C° 0 mm 5 mps 730 mmHg 86%
    02:00 +14°C° 0 mm 6 mps 729 mmHg 85%
    03:00 +14°C° 0 mm 6 mps 729 mmHg 85%
    04:00 +14°C° 0 mm 6 mps 730 mmHg 84%
    05:00 +14°C° 0 mm 6 mps 730 mmHg 83%
    06:00 +14°C° 0 mm 6 mps 730 mmHg 81%
    07:00 +14°C° 0 mm 6 mps 730 mmHg 78%
    08:00 +14°C° 0 mm 6 mps 730 mmHg 76%
    09:00 +16°C° 0 mm 7 mps 730 mmHg 70%
    10:00 +18°C° 0 mm 8 mps 730 mmHg 63%
    11:00 +19°C° 0 mm 9 mps 730 mmHg 57%
    12:00 +21°C° 0 mm 8 mps 730 mmHg 54%
    13:00 +22°C° 0 mm 8 mps 729 mmHg 52%
    14:00 +23°C° 0 mm 8 mps 728 mmHg 49%
    15:00 +22°C° 0 mm 7 mps 728 mmHg 51%
    16:00 +21°C° 0 mm 6 mps 728 mmHg 54%
    17:00 +20°C° 0 mm 5 mps 728 mmHg 56%
    18:00 +20°C° 0.1 mm 6 mps 729 mmHg 57%
    19:00 +19°C° 0.1 mm 6 mps 729 mmHg 58%
    20:00 +17°C° 0.1 mm 7 mps 729 mmHg 60%
    21:00 +17°C° 0.1 mm 7 mps 729 mmHg 57%
    22:00 +17°C° 0.1 mm 7 mps 729 mmHg 54%
    23:00 +16°C° 0.1 mm 8 mps 729 mmHg 51%

    23 June, Sunday

    Time Temperature Precipitation Wind Pressure Humidity
    00:00 +17°C° 0 mm 8 mps 729 mmHg 48%
    01:00 +17°C° 0 mm 8 mps 729 mmHg 44%
    02:00 +17°C° 0 mm 8 mps 729 mmHg 41%
    03:00 +17°C° 0 mm 8 mps 729 mmHg 40%
    04:00 +16°C° 0 mm 7 mps 729 mmHg 39%
    05:00 +16°C° 0 mm 7 mps 729 mmHg 39%
    06:00 +16°C° 0 mm 6 mps 729 mmHg 40%
    07:00 +16°C° 0 mm 6 mps 729 mmHg 41%
    08:00 +16°C° 0 mm 5 mps 729 mmHg 42%
    09:00 +15°C° 0.5 mm 5 mps 729 mmHg 50%
    10:00 +15°C° 0.5 mm 6 mps 729 mmHg 58%
    11:00 +14°C° 0.5 mm 6 mps 730 mmHg 66%
    12:00 +12°C° 1 mm 7 mps 729 mmHg 70%
    13:00 +12°C° 1 mm 9 mps 729 mmHg 74%
    14:00 +12°C° 1 mm 10 mps 729 mmHg 78%
    15:00 +12°C° 1 mm 9 mps 729 mmHg 79%
    16:00 +12°C° 1 mm 9 mps 729 mmHg 80%
    17:00 +12°C° 1 mm 8 mps 729 mmHg 80%
    18:00 +12°C° 0.7 mm 8 mps 730 mmHg 81%
    19:00 +12°C° 0.7 mm 8 mps 730 mmHg 82%
    20:00 +12°C° 0.7 mm 9 mps 730 mmHg 83%
    21:00 +12°C° 0 mm 8 mps 731 mmHg 83%
    22:00 +12°C° 0 mm 7 mps 731 mmHg 82%
    23:00 +13°C° 0 mm 6 mps 731 mmHg 82%

    24 June, Monday

    Time Temperature Precipitation Wind Pressure Humidity
    00:00 +13°C° 0 mm 6 mps 731 mmHg 84%
    01:00 +13°C° 0 mm 6 mps 731 mmHg 87%
    02:00 +13°C° 0 mm 6 mps 731 mmHg 89%
    03:00 +13°C° 0 mm 5 mps 732 mmHg 89%
    04:00 +13°C° 0 mm 4 mps 732 mmHg 89%
    05:00 +13°C° 0 mm 3 mps 733 mmHg 89%
    06:00 +13°C° 0 mm 3 mps 733 mmHg 85%
    07:00 +13°C° 0 mm 3 mps 734 mmHg 81%
    08:00 +14°C° 0 mm 2 mps 734 mmHg 77%
    09:00 +15°C° 0 mm 2 mps 734 mmHg 70%
    10:00 +15°C° 0 mm 2 mps 734 mmHg 63%
    11:00 +16°C° 0 mm 1 mps 735 mmHg 56%
    12:00 +17°C° 0 mm 2 mps 734 mmHg 53%
    13:00 +17°C° 0 mm 2 mps 734 mmHg 50%
    14:00 +18°C° 0 mm 2 mps 734 mmHg 47%
    15:00 +17°C° 0 mm 2 mps 734 mmHg 51%
    16:00 +18°C° 0 mm 1 mps 734 mmHg 55%
    17:00 +16°C° 0 mm 1 mps 735 mmHg 58%
    18:00 +15°C° 0 mm 1 mps 735 mmHg 60%
    19:00 +15°C° 0 mm 1 mps 735 mmHg 61%
    20:00 +14°C° 0 mm 1 mps 736 mmHg 62%
    21:00 +14°C° 0 mm 2 mps 736 mmHg 62%
    22:00 +14°C° 0 mm 2 mps 736 mmHg 63%
    23:00 +13°C° 0 mm 3 mps 736 mmHg 63%

    25 June, Tuesday

    Time Temperature Precipitation Wind Pressure Humidity
    00:00 +12°C° 0 mm 3 mps 736 mmHg 65%
    01:00 +12°C° 0 mm 3 mps 735 mmHg 66%
    02:00 +12°C° 0 mm 3 mps 735 mmHg 67%
    03:00 +11°C° 0 mm 3 mps 735 mmHg 70%
    04:00 +11°C° 0 mm 3 mps 735 mmHg 72%
    05:00 +11°C° 0 mm 3 mps 736 mmHg 75%
    06:00 +11°C° 0 mm 3 mps 736 mmHg 77%
    07:00 +12°C° 0 mm 4 mps 736 mmHg 79%
    08:00 +12°C° 0 mm 4 mps 736 mmHg 81%
    09:00 +14°C° 0 mm 4 mps 736 mmHg 75%
    10:00 +16°C° 0 mm 5 mps 736 mmHg 69%
    11:00 +19°C° 0 mm 6 mps 736 mmHg 63%
    12:00 +20°C° 0 mm 6 mps 735 mmHg 54%
    13:00 +21°C° 0 mm 6 mps 735 mmHg 44%
    14:00 +22°C° 0 mm 5 mps 734 mmHg 35%
    15:00 +21°C° 0 mm 5 mps 734 mmHg 36%
    16:00 +20°C° 0 mm 4 mps 734 mmHg 36%
    17:00 +19°C° 0 mm 3 mps 734 mmHg 36%
    18:00 +19°C° 0 mm 4 mps 734 mmHg 36%
    19:00 +18°C° 0 mm 4 mps 734 mmHg 35%
    20:00 +17°C° 0 mm 4 mps 734 mmHg 35%
    21:00 +16°C° 0 mm 5 mps 734 mmHg 35%
    22:00 +16°C° 0 mm 5 mps 733 mmHg 35%
    23:00 +15°C° 0 mm 5 mps 733 mmHg 35%
    Show more